ON7XX-13 Weather Reports


time (UTC)temp
F
wind
direction
speed
knots
gust
knots
rain 1hr
in
rain 24hr
in
rain mn
in
humidity
%
barometer
mb
20260507171439 59 0.0 0.0 0.00 0.00 0.00 71 1017.7
20260507170425 60 0.0 0.0 0.00 0.00 0.00 71 1017.7
20260507165410 60 0.0 0.0 0.00 0.00 0.00 70 1017.6
20260507164356 60 0.0 0.0 0.00 0.00 0.00 70 1017.7
20260507163342 60 0.0 0.0 0.00 0.00 0.00 70 1017.7
20260507162328 60 0.0 0.0 0.00 0.00 0.00 70 1017.7
20260507161313 60 0.0 0.0 0.00 0.00 0.00 69 1017.7
20260507160257 60 0.0 0.0 0.00 0.00 0.00 70 1017.7
20260507155242 60 0.0 0.0 0.00 0.00 0.00 71 1017.7
20260507154228 60 0.0 0.0 0.00 0.00 0.00 71 1017.6
20260507153214 60 0.0 0.0 0.00 0.00 0.00 70 1017.7
20260507152200 60 0.0 0.0 0.00 0.00 0.00 70 1017.7
20260507151146 60 0.0 0.0 0.00 0.00 0.00 69 1017.7
20260507150131 60 0.0 0.0 0.00 0.00 0.00 69 1017.7
20260507145117 60 0.0 0.0 0.00 0.00 0.00 67 1017.7
20260507144103 60 0.0 0.0 0.00 0.00 0.00 65 1017.6
20260507143049 60 0.0 0.0 0.00 0.00 0.00 66 1017.6
20260507142035 60 0.0 0.0 0.00 0.00 0.00 66 1017.7
20260507141021 60 0.0 0.0 0.00 0.00 0.00 67 1017.8
20260507140006 60 0.0 0.0 0.00 0.00 0.00 64 1017.8
20260507134952 60 0.0 0.0 0.00 0.00 0.00 64 1017.8
20260507133938 60 0.0 0.0 0.00 0.00 0.00 65 1017.8
20260507132924 60 0.0 0.0 0.00 0.00 0.00 63 1017.8
20260507131909 60 0.0 0.0 0.00 0.00 0.00 65 1017.8
20260507130825 60 0.0 0.0 0.00 0.00 0.00 64 1017.8
20260507125811 60 0.0 0.0 0.00 0.00 0.00 65 1017.9
20260507124757 59 0.0 0.0 0.00 0.00 0.00 64 1017.9
20260507123742 59 0.0 0.0 0.00 0.00 0.00 66 1017.9
20260507122728 59 0.0 0.0 0.00 0.00 0.00 67 1017.8
20260507121714 59 0.0 0.0 0.00 0.00 0.00 68 1017.9
20260507120700 59 0.0 0.0 0.00 0.00 0.00 67 1017.9
20260507115646 59 0.0 0.0 0.00 0.00 0.00 67 1017.9
20260507114632 59 0.0 0.0 0.00 0.00 0.00 68 1017.9
20260507113618 59 0.0 0.0 0.00 0.00 0.00 68 1017.8
20260507112603 59 0.0 0.0 0.00 0.00 0.00 70 1017.8
20260507111549 59 0.0 0.0 0.00 0.00 0.00 69 1017.8
20260507110535 59 0.0 0.0 0.00 0.00 0.00 71 1017.9
20260507105521 59 0.0 0.0 0.00 0.00 0.00 72 1017.9
20260507104506 59 0.0 0.0 0.00 0.00 0.00 68 1018.0
20260507103452 60 0.0 0.0 0.00 0.00 0.00 68 1018.0
20260507102438 60 0.0 0.0 0.00 0.00 0.00 73 1018.0
20260507101424 60 0.0 0.0 0.00 0.00 0.00 75 1018.0
20260507100409 59 0.0 0.0 0.00 0.00 0.00 75 1017.9
20260507095355 58 0.0 0.0 0.00 0.00 0.00 74 1017.8
20260507094341 58 0.0 0.0 0.00 0.00 0.00 76 1017.8
20260507093327 58 0.0 0.0 0.00 0.00 0.00 77 1017.8
20260507092313 58 0.0 0.0 0.00 0.00 0.00 83 1017.7
20260507091258 57 0.0 0.0 0.00 0.00 0.00 83 1017.6
20260507090244 57 0.0 0.0 0.00 0.00 0.00 85 1017.6
20260507085230 57 0.0 0.0 0.00 0.00 0.00 88 1017.5
20260507084216 57 0.0 0.0 0.00 0.00 0.00 90 1017.5
20260507083201 56 0.0 0.0 0.00 0.00 0.00 92 1017.5
20260507082147 56 0.0 0.0 0.00 0.00 0.00 93 1017.5
20260507081133 55 0.0 0.0 0.00 0.00 0.00 94 1017.4
20260507080119 55 0.0 0.0 0.00 0.00 0.00 94 1017.4
20260507075104 54 0.0 0.0 0.00 0.00 0.00 96 1017.3
20260507074050 54 0.0 0.0 0.00 0.00 0.00 96 1017.3
20260507073035 54 0.0 0.0 0.00 0.00 0.00 97 1017.2
20260507072021 53 0.0 0.0 0.00 0.00 0.00 97 1017.2
20260507071007 53 0.0 0.0 0.00 0.00 0.00 97 1017.1
20260507065954 53 0.0 0.0 0.00 0.00 0.00 96 1017.0
20260507064939 52 0.0 0.0 0.00 0.00 0.00 96 1017.0
20260507063924 52 0.0 0.0 0.00 0.00 0.00 96 1016.9
20260507062910 52 0.0 0.0 0.00 0.00 0.00 96 1016.8
20260507061856 52 0.0 0.0 0.00 0.00 0.00 96 1016.8
20260507060842 52 0.0 0.0 0.00 0.00 0.00 95 1016.8
20260507055827 52 0.0 0.0 0.00 0.00 0.00 95 1016.7
20260507054813 51 0.0 0.0 0.00 0.00 0.00 94 1016.6
20260507053758 51 0.0 0.0 0.00 0.00 0.00 94 1016.5
20260507052744 51 0.0 0.0 0.00 0.00 0.00 93 1016.4
20260507051729 51 0.0 0.0 0.00 0.00 0.00 93 1016.3
20260507050715 51 0.0 0.0 0.00 0.00 0.00 93 1016.3
20260507045701 51 0.0 0.0 0.00 0.00 0.00 93 1016.1
20260507044647 51 0.0 0.0 0.00 0.00 0.00 94 1016.1
20260507043633 51 0.0 0.0 0.00 0.00 0.00 94 1016.0
20260507042618 51 0.0 0.0 0.00 0.00 0.00 93 1016.0
20260507041604 51 0.0 0.0 0.00 0.00 0.00 92 1016.0
20260507040550 51 0.0 0.0 0.00 0.00 0.00 93 1016.0
20260507035536 51 0.0 0.0 0.00 0.00 0.00 92 1015.9
20260507034521 51 0.0 0.0 0.00 0.00 0.00 92 1015.8
20260507033507 51 0.0 0.0 0.00 0.00 0.00 93 1015.7
20260507032453 51 0.0 0.0 0.00 0.00 0.00 92 1015.7
20260507031438 51 0.0 0.0 0.00 0.00 0.00 92 1015.6
20260507030424 51 0.0 0.0 0.00 0.00 0.00 91 1015.6
20260507025410 51 0.0 0.0 0.00 0.00 0.00 92 1015.5
20260507024355 51 0.0 0.0 0.00 0.00 0.00 91 1015.5
20260507023341 51 0.0 0.0 0.00 0.00 0.00 91 1015.5
20260507022327 51 0.0 0.0 0.00 0.00 0.00 91 1015.6
20260507021313 51 0.0 0.0 0.00 0.00 0.00 91 1015.5
20260507020259 51 0.0 0.0 0.00 0.00 0.00 90 1015.4
20260507015244 51 0.0 0.0 0.00 0.00 0.00 90 1015.4
20260507014230 51 0.0 0.0 0.00 0.00 0.00 90 1015.3
20260507013216 51 0.0 0.0 0.00 0.00 0.00 89 1015.3
20260507012202 51 0.0 0.0 0.00 0.00 0.00 89 1015.3
20260507011147 51 0.0 0.0 0.00 0.00 0.00 89 1015.3
20260507010133 51 0.0 0.0 0.00 0.00 0.00 89 1015.3
20260507005119 51 0.0 0.0 0.00 0.00 0.00 89 1015.2
20260507004105 51 0.0 0.0 0.00 0.00 0.00 89 1015.2
20260507003051 51 0.0 0.0 0.00 0.00 0.00 88 1015.3
20260507002036 51 0.0 0.0 0.00 0.00 0.00 89 1015.3
20260507001022 51 0.0 0.0 0.00 0.00 0.00 88 1015.2
20260507000008 51 0.0 0.0 0.00 0.00 0.00 88 1015.3
20260506234954 51 0.0 0.0 0.00 0.00 0.00 88 1015.2
20260506233940 51 0.0 0.0 0.00 0.00 0.00 87 1015.2
20260506232925 51 0.0 0.0 0.00 0.00 0.00 88 1015.1
20260506231911 51 0.0 0.0 0.00 0.00 0.00 88 1015.0
20260506230857 51 0.0 0.0 0.00 0.00 0.00 87 1015.0
20260506225843 51 0.0 0.0 0.00 0.00 0.00 86 1015.0
20260506224829 52 0.0 0.0 0.00 0.00 0.00 86 1014.9
20260506223815 52 0.0 0.0 0.00 0.00 0.00 85 1014.9
20260506222801 52 0.0 0.0 0.00 0.00 0.00 85 1014.9
20260506221747 52 0.0 0.0 0.00 0.00 0.00 85 1014.9
20260506220732 52 0.0 0.0 0.00 0.00 0.00 84 1014.9
20260506215718 52 0.0 0.0 0.00 0.00 0.00 85 1014.8
20260506214704 52 0.0 0.0 0.00 0.00 0.00 85 1014.8
20260506213650 52 0.0 0.0 0.00 0.00 0.00 85 1014.8
20260506212636 52 0.0 0.0 0.00 0.00 0.00 84 1014.7
20260506211622 52 0.0 0.0 0.00 0.00 0.00 84 1014.7
20260506210607 52 0.0 0.0 0.00 0.00 0.00 83 1014.6
20260506205553 52 0.0 0.0 0.00 0.00 0.00 82 1014.6
20260506204539 53 0.0 0.0 0.00 0.00 0.00 82 1014.5
20260506203525 53 0.0 0.0 0.00 0.00 0.00 82 1014.4
20260506202511 53 0.0 0.0 0.00 0.00 0.00 81 1014.4
20260506201456 53 0.0 0.0 0.00 0.00 0.00 81 1014.3
20260506200442 54 0.0 0.0 0.00 0.00 0.00 79 1014.3
20260506195428 54 0.0 0.0 0.00 0.00 0.00 77 1014.2
20260506194413 54 0.0 0.0 0.00 0.00 0.00 76 1014.1
20260506193359 55 0.0 0.0 0.00 0.00 0.00 76 1014.0
20260506192345 55 0.0 0.0 0.00 0.00 0.00 75 1014.0
20260506191331 56 0.0 0.0 0.00 0.00 0.00 74 1013.8
20260506190317 56 0.0 0.0 0.00 0.00 0.00 73 1013.7
20260506185306 56 0.0 0.0 0.00 0.00 0.00 71 1013.5
20260506184248 57 0.0 0.0 0.00 0.00 0.00 71 1013.5
20260506183234 57 0.0 0.0 0.00 0.00 0.00 71 1013.5
20260506182219 58 0.0 0.0 0.00 0.00 0.00 70 1013.4
20260506181205 58 0.0 0.0 0.00 0.00 0.00 69 1013.2
20260506180151 58 0.0 0.0 0.00 0.00 0.00 68 1013.1
20260506175136 59 0.0 0.0 0.00 0.00 0.00 68 1013.0
20260506174122 59 0.0 0.0 0.00 0.00 0.00 69 1012.8
20260506173108 59 0.0 0.0 0.00 0.00 0.00 68 1012.7